Date String (YYYY-MM-DD hh:mm:ss) UTC,Instrument flags,Ambient pressure (hPa),Sample flow (lpm),Bypass flow (lpm),Sample temperature (°C),Ambient temperature (°C),ASC tube jacket temperature (°C),LED temperature (°C),Box temperature (°C),Sample RH (%),Span deviation,Mass concentration (μg/m³),Mass concentration (μg/m³),Mass concentration (μg/m³)
DateTimeUTC,F1_M11,P_M11,Q1_M11,Q2_M11,T1_M11,T2_M11,T3_M11,T4_M11,T5_M11,U1_M11,ZSPAN_M11,X0_M11,X2_M11,X1_M11
2022-08-28 20:00:00,,0821.9,5.01,0.00,29.2,27.1,00.0,37.8,31.0,14.5,0000.0,0008.22,0003.79,0003.22
2022-08-28 20:01:00,,0821.8,5.00,0.00,29.2,27.4,00.0,37.8,31.0,14.9,0000.0,0008.30,0003.82,0003.23
2022-08-28 20:02:00,,0821.8,4.99,0.00,29.2,27.6,00.0,37.8,31.1,15.4,0000.0,0008.46,0003.83,0003.24
2022-08-28 20:03:00,,0821.8,4.99,0.00,29.3,27.9,00.0,37.8,31.1,14.8,0000.0,0008.31,0003.83,0003.24
2022-08-28 20:04:00,,0821.8,5.01,0.00,29.3,28.1,00.0,37.9,31.2,14.4,0000.0,0007.45,0003.82,0003.25
2022-08-28 20:05:00,,0821.8,5.00,0.00,29.3,28.1,00.0,37.9,31.3,14.8,0000.0,0007.39,0003.81,0003.26
2022-08-28 20:06:00,,0821.8,5.00,0.00,29.4,27.2,00.0,37.9,31.2,14.9,0000.0,0007.40,0003.83,0003.25
2022-08-28 20:07:00,,0821.8,4.99,0.00,29.3,26.5,00.0,37.9,31.1,15.0,0000.0,0007.30,0003.81,0003.25
2022-08-28 20:08:00,,0821.8,5.00,0.00,29.3,26.8,00.0,37.9,31.1,15.4,0000.0,0007.18,0003.79,0003.25
2022-08-28 20:09:00,,0821.8,5.00,0.00,29.3,27.1,00.0,37.9,31.0,15.7,0000.0,0007.34,0003.80,0003.26
2022-08-28 20:10:00,,0821.8,5.00,0.00,29.2,27.4,00.0,37.8,31.0,16.0,0000.0,0008.10,0003.82,0003.27
2022-08-28 20:11:00,,0821.8,4.99,0.00,29.3,27.7,00.0,37.9,31.1,15.5,0000.0,0007.97,0003.78,0003.27
2022-08-28 20:12:00,,0821.7,5.00,0.00,29.3,27.9,00.0,37.9,31.2,15.5,0000.0,0007.92,0003.76,0003.28
2022-08-28 20:13:00,,0821.7,5.01,0.00,29.3,28.0,00.0,37.9,31.2,14.9,0000.0,0008.11,0003.77,0003.28
2022-08-28 20:14:00,,0821.7,5.00,0.00,29.3,27.2,00.0,37.9,31.2,14.7,0000.0,0008.40,0003.77,0003.28
2022-08-28 20:15:00,,0821.8,4.99,0.00,29.3,26.6,00.0,37.9,31.1,14.9,0000.0,0008.38,0003.75,0003.28
2022-08-28 20:16:00,,0821.8,5.01,0.00,29.3,26.8,00.0,37.9,31.1,14.6,0000.0,0008.48,0003.76,0003.27
2022-08-28 20:17:00,,0821.8,5.00,0.00,29.3,27.1,00.0,37.8,31.0,14.4,0000.0,0008.53,0003.77,0003.27
2022-08-28 20:18:00,,0821.8,5.01,0.00,29.2,27.4,00.0,37.8,31.0,14.9,0000.0,0008.50,0003.77,0003.26
2022-08-28 20:19:00,,0821.8,4.99,0.00,29.3,27.7,00.0,37.8,31.1,15.3,0000.0,0008.96,0003.77,0003.25
2022-08-28 20:20:00,,0821.8,5.01,0.00,29.3,27.9,00.0,37.9,31.1,15.0,0000.0,0009.00,0003.76,0003.24
2022-08-28 20:21:00,,0821.8,5.00,0.00,29.3,28.2,00.0,37.9,31.2,15.1,0000.0,0008.52,0003.75,0003.23
2022-08-28 20:22:00,,0821.8,5.00,0.00,29.4,27.8,00.0,37.9,31.3,15.3,0000.0,0008.52,0003.78,0003.23
2022-08-28 20:23:00,,0821.7,4.98,0.00,29.3,26.8,00.0,37.9,31.2,15.7,0000.0,0008.73,0003.82,0003.23
2022-08-28 20:24:00,,0821.7,5.00,0.00,29.3,26.6,00.0,37.9,31.1,15.8,0000.0,0008.59,0003.80,0003.22
2022-08-28 20:25:00,,0821.7,5.02,0.00,29.3,26.9,00.0,37.9,31.1,15.7,0000.0,0008.03,0003.77,0003.22
2022-08-28 20:26:00,,0821.7,4.99,0.00,29.3,27.2,00.0,37.9,31.0,15.5,0000.0,0007.95,0003.74,0003.22
2022-08-28 20:27:00,,0821.7,4.99,0.00,29.3,27.5,00.0,37.9,31.0,15.4,0000.0,0007.96,0003.72,0003.23
2022-08-28 20:28:00,,0821.7,5.01,0.00,29.3,27.8,00.0,37.9,31.1,15.0,0000.0,0008.28,0003.70,0003.23
2022-08-28 20:29:00,,0821.6,4.99,0.00,29.3,28.0,00.0,37.9,31.2,15.2,0000.0,0008.25,0003.69,0003.24
2022-08-28 20:30:00,,0821.6,5.02,0.00,29.4,28.1,00.0,37.9,31.3,15.1,0000.0,0008.07,0003.70,0003.26
2022-08-28 20:31:00,,0821.7,5.00,0.00,29.4,27.3,00.0,37.9,31.2,14.8,0000.0,0007.90,0003.68,0003.27
2022-08-28 20:32:00,,0821.6,4.99,0.00,29.3,26.6,00.0,37.9,31.2,15.5,0000.0,0007.70,0003.69,0003.29
2022-08-28 20:33:00,,0821.6,5.00,0.00,29.3,26.8,00.0,37.9,31.2,15.5,0000.0,0007.55,0003.68,0003.31
2022-08-28 20:34:00,,0821.7,5.00,0.00,29.3,27.1,00.0,37.9,31.1,14.3,0000.0,0007.38,0003.65,0003.31
2022-08-28 20:35:00,,0821.7,5.01,0.00,29.3,27.4,00.0,37.9,31.0,14.5,0000.0,0007.32,0003.64,0003.31
2022-08-28 20:36:00,,0821.7,5.00,0.00,29.3,27.7,00.0,37.9,31.1,14.7,0000.0,0007.68,0003.65,0003.31
2022-08-28 20:37:00,,0821.7,4.99,0.00,29.3,27.9,00.0,37.9,31.2,14.6,0000.0,0008.06,0003.69,0003.31
2022-08-28 20:38:00,,0821.7,4.99,0.00,29.4,28.0,00.0,37.9,31.3,14.7,0000.0,0008.24,0003.70,0003.31
2022-08-28 20:39:00,,0821.7,5.00,0.00,29.4,27.1,00.0,37.9,31.2,14.4,0000.0,0008.26,0003.74,0003.31
2022-08-28 20:40:00,,0821.6,5.01,0.00,29.3,26.4,00.0,37.9,31.1,15.0,0000.0,0008.37,0003.76,0003.32
2022-08-28 20:41:00,,0821.5,4.99,0.00,29.3,26.6,00.0,37.9,31.1,15.1,0000.0,0008.28,0003.79,0003.32
2022-08-28 20:42:00,,0821.6,5.00,0.00,29.2,26.9,00.0,37.9,31.0,15.0,0000.0,0008.28,0003.81,0003.32
2022-08-28 20:43:00,,0821.6,5.00,0.00,29.2,27.2,00.0,37.8,31.0,15.0,0000.0,0008.28,0003.81,0003.32
2022-08-28 20:44:00,,0821.5,4.99,0.00,29.2,27.5,00.0,37.9,31.1,15.1,0000.0,0008.39,0003.83,0003.31
2022-08-28 20:45:00,,0821.5,5.00,0.00,29.3,27.8,00.0,37.9,31.2,15.1,0000.0,0008.68,0003.86,0003.31
2022-08-28 20:46:00,,0821.5,5.01,0.00,29.3,28.1,00.0,37.9,31.2,15.0,0000.0,0009.11,0003.87,0003.31
2022-08-28 20:47:00,,0821.5,5.00,0.00,29.4,27.8,00.0,37.9,31.3,15.1,0000.0,0008.97,0003.87,0003.30
2022-08-28 20:48:00,,0821.5,5.00,0.00,29.3,26.7,00.0,37.9,31.1,15.3,0000.0,0008.61,0003.86,0003.31
2022-08-28 20:49:00,,0821.5,5.00,0.00,29.3,26.5,00.0,37.9,31.1,15.2,0000.0,0008.62,0003.86,0003.31
2022-08-28 20:50:00,,0821.5,4.99,0.00,29.2,26.8,00.0,37.9,31.1,15.4,0000.0,0008.21,0003.83,0003.31
2022-08-28 20:51:00,,0821.5,5.00,0.00,29.2,27.0,00.0,37.8,30.9,15.1,0000.0,0008.09,0003.81,0003.30
2022-08-28 20:52:00,,0821.5,5.01,0.00,29.2,27.3,00.0,37.8,31.0,15.0,0000.0,0008.04,0003.78,0003.29
2022-08-28 20:53:00,,0821.6,5.02,0.00,29.2,27.6,00.0,37.8,31.1,15.2,0000.0,0008.10,0003.79,0003.28
2022-08-28 20:54:00,,0821.6,5.00,0.00,29.3,27.9,00.0,37.9,31.2,15.3,0000.0,0008.27,0003.82,0003.27
2022-08-28 20:55:00,,0821.7,5.00,0.00,29.3,28.1,00.0,37.9,31.2,15.6,0000.0,0008.27,0003.80,0003.26
2022-08-28 20:56:00,,0821.7,5.00,0.00,29.4,27.9,00.0,37.9,31.3,15.7,0000.0,0008.09,0003.79,0003.26
2022-08-28 20:57:00,,0821.7,5.00,0.00,29.3,26.8,00.0,37.9,31.2,15.8,0000.0,0007.77,0003.77,0003.26
2022-08-28 20:58:00,,0821.7,4.99,0.00,29.3,26.5,00.0,37.9,31.1,15.6,0000.0,0007.87,0003.78,0003.27
2022-08-28 20:59:00,,0821.7,5.00,0.00,29.3,26.8,00.0,37.9,31.1,16.0,0000.0,0007.82,0003.77,0003.27
